Location: Rock Island IL
(41.5000°N, 90.5500°W)
Time: 10:47:22
(UTC-06:00)

Daily predictions for brighter satellites

Satellite Brightness Start Highest point End
(mag) Time Altitude Azimuth Time Altitude Azimuth Time Altitude Azimuth
Cosmos 1975 2.8 16:58:16 10° N 17:02:20 79° E 17:06:23 10° S
SMAP 3.4 16:58:57 10° SE 17:03:21 43° ENE 17:07:46 10° N
Cosmos 990 Rocket 4.3 16:58:40 10° SSW 17:03:48 72° WNW 17:09:00 10° NNE
NOSS 3-2 (A) 4.4 16:58:34 10° NNW 17:05:32 41° NE 17:13:05 10° ESE
Meteor 2-4 Rocket 4.3 17:02:32 10° SSE 17:07:24 34° E 17:12:12 10° NNE
CSL-04 Debris 4.2 17:04:12 10° SSE 17:09:27 58° ENE 17:14:45 10° N
DELTA 2 R/B (1) 3.8 17:08:18 10° W 17:13:50 73° S 17:19:24 10° E
BREEZE-M DEB (TANK) 2.3 17:11:39 10° WNW 17:14:09 80° NNE 17:20:55 10° ESE
Meteor 1-13 Rocket 4.3 17:11:57 10° S 17:17:24 57° E 17:22:59 10° NNE
ALOS 3.6 17:14:31 10° ESE 17:17:43 19° ENE 17:20:58 10° NNE
Cosmos 2369 4.1 17:12:43 10° S 17:18:05 46° ESE 17:23:30 10° NE
Cosmos 2278 4.1 17:13:21 10° S 17:18:41 44° ESE 17:24:04 10° NE
ATLAS 2AS CENTAUR R/B 3.3 17:11:47 10° SW 17:19:33 78° NW 17:27:45 10° NNE
ATLAS 3B R/B 2.6 17:13:22 10° NNW 17:20:03 69° NE 17:26:31 10° SE
IRAS Rocket 4.2 17:17:59 10° SSE 17:23:28 85° ENE 17:28:59 10° NNW
Cosmos 1536 Rocket 3.8 17:19:39 10° SSE 17:23:47 45° E 17:27:56 10° NNE
Hubble Space Telescope 3.6 17:23:02 10° SSW 17:24:33 12° S 17:26:02 10° SSE
Meteor 1-28 Rocket 3.3 17:21:42 10° NNE 17:25:24 55° E 17:29:07 10° S
CZ-4 R/B 1.4 17:22:20 10° SSE 17:26:05 50° ENE 17:29:56 10° N
CSL-04 Rocket 3.7 17:20:49 10° SSE 17:26:14 89° ENE 17:31:47 10° NNW
Cosmos 158 Rocket 3.9 17:21:33 10° NNW 17:26:35 60° ENE 17:31:28 10° SSE
Cosmos 468 4.5 17:27:12 10° NNW 17:32:32 71° ENE 17:37:48 10° SSE
USA 215 3.3 17:26:04 10° SE 17:32:37 88° SW 17:39:12 10° NW
Cosmos 1743 3.2 17:31:38 10° NNW 17:35:29 64° W 17:39:19 10° S
EO 1 Del DPAF 4.4 17:33:38 15° NE 17:35:50 23° E 17:38:56 10° SSE
Cosmos 1697 Rocket 3.3 17:31:24 10° S 17:36:32 37° ESE 17:41:05 13° NE
SKYMED 2 4.2 17:33:38 10° NNE 17:37:36 34° E 17:41:33 10° SSE
NOSS 8 (A) 4.2 17:35:19 10° SSW 17:38:37 81° SE 17:41:04 17° NE
Meteor 1-19 Rocket 4.4 17:35:03 10° SSW 17:40:43 82° W 17:46:33 10° N
NOSS 3-4 (A) 4.0 17:35:27 10° S 17:41:11 40° ESE 17:45:48 16° NE
NOSS 3-4 (C) 4.0 17:35:34 10° S 17:41:16 40° ESE 17:45:51 16° NE
Abrixas rocket 3.7 17:43:16 10° WNW 17:46:01 24° N 17:47:23 19° NNE
Okean 2 4.3 17:42:48 10° SSE 17:46:18 27° E 17:48:05 20° NE
Cosmos 2082 3.6 17:42:57 10° NNW 17:48:36 79° ENE 17:54:13 10° SSE
PSLV R/B 3.1 17:46:35 10° W 17:49:45 78° S 17:51:14 28° E
ISS -2.0 17:50:25 10° WNW 17:53:25 33° SW 17:56:24 10° SSE
Gbstr 26 Del rocket 4.5 17:45:22 10° SW 17:53:26 74° SE 17:58:45 20° ENE
Landsat 4 3.7 17:49:54 11° NNE 17:53:29 60° ESE 17:57:13 10° S
Cosmos 2266 Rocket 3.9 17:48:57 10° N 17:55:04 81° E 18:01:15 10° S
ERS-2 2.4 17:53:18 10° SE 17:56:46 43° ENE 18:00:16 10° N
BREEZE-M DEB (TANK) 3.8 17:56:01 10° NW 17:58:52 48° NNE 18:02:42 20° E
CENTAUR R/B 3.7 17:53:03 10° NNW 18:00:01 34° NE 18:04:34 21° E
SPOT 3 Rocket 3.7 17:55:08 10° SE 18:00:05 49° ENE 18:05:04 10° N
Cosmos 1455 Rocket 4.2 17:55:58 10° NNW 18:00:11 45° W 18:04:20 10° SSW
Cosmos 2227 Rocket 2.6 17:54:42 10° NNW 18:00:20 67° WSW 18:05:54 10° S
Ariane Rocket 4.3 18:03:56 10° S 18:08:41 42° W 18:13:29 10° NNW
YAOGAN 1 2.8 18:05:18 10° S 18:09:35 72° WSW 18:13:56 10° NNW
USA 116 4.1 18:07:16 11° N 18:10:14 47° WNW 18:13:12 10° SSW
MOS 1 4.2 18:07:33 10° SSE 18:13:14 81° ENE 18:18:56 10° NNW
Cosmos 2251 Rocket 4.3 18:09:24 10° N 18:13:36 30° NE 18:13:36 30° NE
Cosmos 1980 Rocket 2.4 18:12:04 10° S 18:17:28 47° ESE 18:19:35 32° ENE
Cosmos 494 Rocket 4.2 18:13:00 10° N 18:18:06 47° ENE 18:23:05 10° SE
Meteor 1-23 Rocket 4.3 18:13:00 10° S 18:18:46 83° W 18:24:30 10° N
Cosmos 1269 Rocket 4.2 18:15:06 10° NNW 18:20:24 74° WSW 18:25:40 10° S
Cosmos 1125 Rocket 4.3 18:17:09 10° SW 18:22:18 52° WNW 18:27:27 10° N
COSMO-SKYMED 1 2.8 18:21:49 12° N 18:25:45 69° WNW 18:30:02 10° SSW
Cosmos 2297 Rocket 3.2 18:21:26 10° NW 18:26:51 47° WSW 18:32:13 10° S
Atlas Centaur 2 4.2 18:26:52 10° SW 18:29:27 14° SSW 18:31:48 10° S
Cosmos 1244 Rocket 4.3 18:23:44 10° N 18:29:52 68° E 18:36:01 10° SSE
Gblst 52 Del rocket 4.2 18:24:58 10° NW 18:30:39 70° NNE 18:33:02 38° ESE
SJ 16-02 2.8 18:27:19 10° SW 18:31:22 36° WNW 18:35:02 12° N
Cosmos 1656 4.4 18:26:47 10° SW 18:32:12 51° WNW 18:36:33 15° N
Cosmos 2344 4.4 18:35:05 10° SSE 18:40:34 28° ESE 18:40:34 28° ESE
Cosmos 2227 4.4 18:40:01 10° NNW 18:45:10 51° NE 18:45:10 51° NE
RESURS DK-1 3.5 18:41:51 10° S 18:44:18 33° S 18:44:18 33° S
Cosmos 1553 Rocket 3.9 18:43:48 10° S 18:50:08 66° E 18:52:38 38° NNE
SL-08 R/B 4.3 18:45:26 10° N 18:51:42 66° E 18:57:49 10° SSE
Cosmos 1417 Rocket 4.3 18:47:10 10° S 18:53:18 80° E 18:56:48 28° NNE
Okean 1-7 Rocket 3.8 18:49:02 10° SSW 18:53:22 66° W 18:54:16 52° NNW
SL-24 R/B - RUBIN 2 4.3 18:48:11 10° SW 18:54:26 81° WNW 18:55:54 53° NNE
ALOS 3.2 18:50:19 10° S 18:54:47 47° W 18:59:19 10° NNW
Cosmos 1025 Rocket 4.0 18:50:53 10° SSW 18:55:00 46° WNW 18:56:56 27° NNW
SL-16 R/B 3.9 18:53:47 10° SSE 18:55:26 18° SSE 18:55:26 18° SSE
DELTA 2 R/B (1) 3.8 18:54:39 10° W 19:00:08 60° SSW 19:00:47 56° SSE
Cosmos 1745 Rocket 4.5 18:57:08 10° N 19:09:07 12° SSE 19:09:31 10° SSE
Cosmos 2263 Rocket 4.2 18:58:35 10° N 18:59:26 14° N 18:59:26 14° N
Cosmos 2322 Rocket 4.0 18:58:48 10° S 19:00:14 17° SSE 19:00:14 17° SSE
NOSS 3-2 (C) 4.4 18:56:59 10° NW 19:04:32 64° WSW 19:12:39 10° SSE
Cosmos 2360 4.2 19:00:25 10° SSW 19:06:09 77° WNW 19:07:03 63° N
DNEPR-1 R/B 4.4 19:15:06 10° NW 19:20:19 67° WSW 19:20:48 64° SSW
Cosmos 1697 Rocket 4.2 19:15:28 10° WSW 19:20:30 33° WNW 19:22:52 24° NNW
NOSS 3-4 (A) 4.5 19:26:13 10° WSW 19:32:03 40° NW 19:33:16 37° NNW
NOSS 3-4 (C) 4.5 19:26:18 10° WSW 19:32:08 40° NW 19:33:20 37° NNW
CENTAUR R/B 3.2 19:43:27 10° NW 19:51:26 73° WSW 19:51:51 72° SW
Cosmos 1980 Rocket 4.0 19:56:55 10° WSW 20:01:25 27° WNW 20:01:25 27° WNW
